Time,TemperatureF,DewpointF,PressureIn,WindDirection,WindDirectionDegrees,WindSpeedMPH,WindSpeedGustMPH,Humidity,HourlyPrecipIn,Conditions,Clouds,dailyrainin,SoftwareType,DateUTC
2013-01-21 00:02:00,68.5,68.2,30.05,NW,315,0.0,0.0,99,0.04,RA,,0.00,WeatherDisplay:10.37,2013-01-21 05:02:00,
2013-01-21 00:03:00,68.5,68.2,30.05,NNW,338,0.0,0.0,99,0.04,RA,,0.00,WeatherDisplay:10.37,2013-01-21 05:03:00,
2013-01-21 00:07:00,68.5,68.2,30.05,NNW,338,0.0,0.0,99,0.03,RA,,0.00,WeatherDisplay:10.37,2013-01-21 05:07:00,
2013-01-21 00:09:00,68.5,68.2,30.05,NNW,338,0.0,0.0,99,0.02,RA,,0.00,WeatherDisplay:10.37,2013-01-21 05:09:00,
2013-01-21 00:14:00,68.5,68.2,30.05,NNW,338,0.0,0.0,99,0.01,CLR,,0.00,WeatherDisplay:10.37,2013-01-21 05:14:00,
2013-01-21 00:19:00,68.5,68.2,30.05,NNW,338,0.0,0.0,99,0.00,CLR,,0.00,WeatherDisplay:10.37,2013-01-21 05:19:00,
2013-01-21 00:24:00,68.5,68.2,30.05,NNW,338,0.0,0.0,99,0.00,CLR,,0.00,WeatherDisplay:10.37,2013-01-21 05:24:00,
2013-01-21 00:29:00,68.4,68.1,30.05,ESE,112,0.0,0.0,99,0.00,CLR,,0.00,WeatherDisplay:10.37,2013-01-21 05:29:00,
2013-01-21 00:34:00,68.4,68.1,30.05,NE,45,4.2,4.2,99,0.00,CLR,,0.00,WeatherDisplay:10.37,2013-01-21 05:34:00,
2013-01-21 00:39:00,68.7,68.4,30.04,ENE,68,3.5,3.5,99,0.00,CLR,,0.00,WeatherDisplay:10.37,2013-01-21 05:39:00,
2013-01-21 00:44:00,68.9,68.6,30.04,ENE,68,5.8,5.8,99,0.00,CLR,,0.00,WeatherDisplay:10.37,2013-01-21 05:44:00,
2013-01-21 00:49:00,68.9,68.6,30.04,ENE,68,3.5,3.5,99,0.00,CLR,,0.00,WeatherDisplay:10.37,2013-01-21 05:49:00,
2013-01-21 00:54:00,68.9,68.6,30.04,ESE,112,4.6,4.6,99,0.00,CLR,,0.00,WeatherDisplay:10.37,2013-01-21 05:54:00,
2013-01-21 00:59:00,69.1,68.8,30.04,ENE,68,5.8,5.8,99,0.00,CLR,,0.00,WeatherDisplay:10.37,2013-01-21 05:59:00,
2013-01-21 01:04:00,69.3,68.7,30.04,East,90,5.8,5.8,98,0.00,CLR,,0.00,WeatherDisplay:10.37,2013-01-21 06:04:00,
2013-01-21 01:09:00,69.8,68.9,30.04,ESE,112,8.1,8.1,97,0.00,CLR,,0.00,WeatherDisplay:10.37,2013-01-21 06:09:00,
2013-01-21 01:14:00,69.8,68.9,30.04,East,90,3.5,3.5,97,0.00,CLR,,0.00,WeatherDisplay:10.37,2013-01-21 06:14:00,
2013-01-21 01:19:00,69.4,68.5,30.04,East,90,2.7,2.7,97,0.00,CLR,,0.00,WeatherDisplay:10.37,2013-01-21 06:19:00,
2013-01-21 01:24:00,69.3,68.4,30.04,ENE,68,3.2,3.2,97,0.00,CLR,,0.00,WeatherDisplay:10.37,2013-01-21 06:24:00,
2013-01-21 01:29:00,69.1,68.5,30.04,North,360,3.7,3.7,98,0.00,CLR,,0.00,WeatherDisplay:10.37,2013-01-21 06:29:00,
2013-01-21 01:34:00,69.1,68.5,30.04,North,360,3.5,3.5,98,0.00,CLR,,0.00,WeatherDisplay:10.37,2013-01-21 06:34:00,
2013-01-21 01:39:00,68.9,68.3,30.04,North,360,2.3,2.4,98,0.00,CLR,,0.00,WeatherDisplay:10.37,2013-01-21 06:39:00,
2013-01-21 01:44:00,68.7,68.1,30.04,NNE,22,2.7,2.7,98,0.00,CLR,,0.00,WeatherDisplay:10.37,2013-01-21 06:44:00,
2013-01-21 01:49:00,68.7,68.1,30.04,NE,45,4.6,4.6,98,0.00,CLR,,0.00,WeatherDisplay:10.37,2013-01-21 06:49:00,
2013-01-21 01:54:00,68.7,68.1,30.04,NNW,338,4.6,4.6,98,0.00,CLR,,0.00,WeatherDisplay:10.37,2013-01-21 06:54:00,
2013-01-21 01:59:00,68.5,67.9,30.04,NNW,338,3.7,3.7,98,0.00,CLR,,0.00,WeatherDisplay:10.37,2013-01-21 06:59:00,
2013-01-21 02:04:00,68.5,67.9,30.04,NW,315,3.5,3.5,98,0.00,CLR,,0.00,WeatherDisplay:10.37,2013-01-21 07:04:00,
2013-01-21 02:09:00,68.2,67.6,30.04,NNW,338,2.3,2.3,98,0.00,CLR,,0.00,WeatherDisplay:10.37,2013-01-21 07:09:00,
2013-01-21 02:14:00,68.2,67.9,30.03,NW,315,0.0,0.0,99,0.00,CLR,,0.00,WeatherDisplay:10.37,2013-01-21 07:14:00,
2013-01-21 02:19:00,67.8,67.5,30.03,NW,315,0.0,0.0,99,0.00,CLR,,0.00,WeatherDisplay:10.37,2013-01-21 07:19:00,
2013-01-21 02:24:00,67.6,67.3,30.03,NNW,338,0.0,0.0,99,0.00,CLR,,0.00,WeatherDisplay:10.37,2013-01-21 07:24:00,
2013-01-21 02:30:00,67.5,67.2,30.02,NNW,338,0.0,0.0,99,0.00,CLR,,0.00,WeatherDisplay:10.37,2013-01-21 07:30:00,
2013-01-21 02:35:00,67.3,67.0,30.02,NNW,332,0.0,0.0,99,0.00,CLR,,0.00,WeatherDisplay:10.37,2013-01-21 07:35:00,
2013-01-21 02:40:00,67.1,66.8,30.02,NNW,338,0.0,0.0,99,0.00,CLR,,0.00,WeatherDisplay:10.37,2013-01-21 07:40:00,
2013-01-21 02:45:00,66.9,66.6,30.02,NNW,338,0.0,0.0,99,0.00,CLR,,0.00,WeatherDisplay:10.37,2013-01-21 07:45:00,
2013-01-21 02:50:00,66.7,66.4,30.02,NNW,330,0.0,0.0,99,0.00,CLR,,0.00,WeatherDisplay:10.37,2013-01-21 07:50:00,
2013-01-21 02:55:00,66.6,66.3,30.02,NW,318,0.0,0.0,99,0.00,CLR,,0.00,WeatherDisplay:10.37,2013-01-21 07:55:00,
2013-01-21 03:00:00,66.6,66.3,30.02,NW,315,0.0,0.0,99,0.00,CLR,,0.00,WeatherDisplay:10.37,2013-01-21 08:00:00,
2013-01-21 03:05:00,66.2,65.9,30.02,NW,315,0.0,0.0,99,0.00,CLR,,0.00,WeatherDisplay:10.37,2013-01-21 08:05:00,
2013-01-21 03:10:00,66.2,65.9,30.02,NW,323,0.0,0.0,99,0.00,CLR,,0.00,WeatherDisplay:10.37,2013-01-21 08:10:00,
2013-01-21 03:15:00,66.2,65.9,30.03,NNW,332,0.0,0.0,99,0.00,CLR,,0.00,WeatherDisplay:10.37,2013-01-21 08:15:00,
2013-01-21 03:20:00,66.2,65.9,30.03,NNW,331,0.0,0.0,99,0.00,CLR,,0.00,WeatherDisplay:10.37,2013-01-21 08:20:00,
2013-01-21 03:25:00,66.1,65.8,30.03,NW,326,0.0,0.0,99,0.00,CLR,,0.00,WeatherDisplay:10.37,2013-01-21 08:25:00,
2013-01-21 03:30:00,66.0,65.7,30.02,NW,318,0.0,0.0,99,0.00,CLR,,0.00,WeatherDisplay:10.37,2013-01-21 08:30:00,
2013-01-21 03:35:00,65.8,65.5,30.02,NW,315,0.0,0.0,99,0.00,CLR,,0.00,WeatherDisplay:10.37,2013-01-21 08:35:00,
2013-01-21 03:40:00,65.7,65.4,30.02,NW,315,0.0,0.0,99,0.00,CLR,,0.00,WeatherDisplay:10.37,2013-01-21 08:40:00,
2013-01-21 03:45:00,65.6,65.3,30.02,NW,315,0.0,0.0,99,0.00,CLR,,0.00,WeatherDisplay:10.37,2013-01-21 08:45:00,
2013-01-21 03:50:00,65.5,65.2,30.02,NW,315,0.0,0.0,99,0.00,CLR,,0.00,WeatherDisplay:10.37,2013-01-21 08:50:00,
2013-01-21 03:55:00,65.5,65.2,30.02,NNW,328,0.0,0.0,99,0.00,CLR,,0.00,WeatherDisplay:10.37,2013-01-21 08:55:00,
2013-01-21 04:00:00,65.5,65.2,30.02,NNW,328,0.0,0.0,99,0.00,CLR,,0.00,WeatherDisplay:10.37,2013-01-21 09:00:00,
2013-01-21 04:05:00,65.5,65.2,30.02,NW,316,0.0,0.0,99,0.00,CLR,,0.00,WeatherDisplay:10.37,2013-01-21 09:05:00,
2013-01-21 04:10:00,65.5,65.2,30.02,NW,315,0.0,0.0,99,0.00,CLR,,0.00,WeatherDisplay:10.37,2013-01-21 09:10:00,
2013-01-21 04:15:00,65.3,65.0,30.02,NW,315,0.0,0.0,99,0.00,CLR,,0.00,WeatherDisplay:10.37,2013-01-21 09:15:00,
2013-01-21 04:20:00,65.1,64.8,30.02,NW,315,0.0,0.0,99,0.00,CLR,,0.00,WeatherDisplay:10.37,2013-01-21 09:20:00,
2013-01-21 04:25:00,65.1,64.8,30.02,NW,317,0.0,0.0,99,0.00,CLR,,0.00,WeatherDisplay:10.37,2013-01-21 09:25:00,
2013-01-21 04:30:00,64.9,64.6,30.01,NW,324,0.0,0.0,99,0.00,CLR,,0.00,WeatherDisplay:10.37,2013-01-21 09:30:00,
2013-01-21 04:35:00,64.9,64.6,30.01,NW,320,0.0,0.0,99,0.00,CLR,,0.00,WeatherDisplay:10.37,2013-01-21 09:35:00,
2013-01-21 04:40:00,64.8,64.5,30.01,NW,315,0.0,0.0,99,0.00,CLR,,0.00,WeatherDisplay:10.37,2013-01-21 09:40:00,
2013-01-21 04:45:00,64.8,64.5,30.01,NW,325,0.0,0.0,99,0.00,CLR,,0.00,WeatherDisplay:10.37,2013-01-21 09:45:00,
2013-01-21 04:50:00,64.6,64.3,30.01,NNW,334,0.0,0.0,99,0.00,CLR,,0.00,WeatherDisplay:10.37,2013-01-21 09:50:00,
2013-01-21 04:55:00,64.6,64.3,30.01,NNW,332,0.0,0.0,99,0.00,CLR,,0.00,WeatherDisplay:10.37,2013-01-21 09:55:00,
2013-01-21 05:00:00,64.6,64.3,30.01,NW,326,0.0,0.0,99,0.00,CLR,,0.00,WeatherDisplay:10.37,2013-01-21 10:00:00,
2013-01-21 05:05:00,64.8,64.5,30.00,NW,316,2.0,0.0,99,0.00,CLR,,0.00,WeatherDisplay:10.37,2013-01-21 10:05:00,
2013-01-21 05:10:00,64.8,64.5,30.00,NW,315,1.0,0.0,99,0.00,CLR,,0.00,WeatherDisplay:10.37,2013-01-21 10:10:00,
2013-01-21 05:15:00,64.6,64.3,30.00,NW,315,0.0,0.0,99,0.00,CLR,,0.00,WeatherDisplay:10.37,2013-01-21 10:15:00,
2013-01-21 05:20:00,64.4,64.1,30.00,NW,315,0.0,0.0,99,0.00,CLR,,0.00,WeatherDisplay:10.37,2013-01-21 10:20:00,
2013-01-21 05:25:00,64.4,64.1,30.00,NW,315,0.0,0.0,99,0.00,CLR,,0.00,WeatherDisplay:10.37,2013-01-21 10:25:00,
2013-01-21 05:30:00,64.3,64.0,30.00,NW,315,0.0,0.0,99,0.00,CLR,,0.00,WeatherDisplay:10.37,2013-01-21 10:30:00,
2013-01-21 05:35:00,64.2,63.9,30.00,NW,315,0.0,0.0,99,0.00,CLR,,0.00,WeatherDisplay:10.37,2013-01-21 10:35:00,
2013-01-21 05:40:00,64.2,63.9,30.00,NW,315,0.0,0.0,99,0.00,CLR,,0.00,WeatherDisplay:10.37,2013-01-21 10:40:00,
2013-01-21 05:45:00,64.2,63.9,30.00,NW,315,0.0,0.0,99,0.00,CLR,,0.00,WeatherDisplay:10.37,2013-01-21 10:45:00,
2013-01-21 05:50:00,64.2,63.9,30.00,NW,315,2.0,0.0,99,0.00,CLR,,0.00,WeatherDisplay:10.37,2013-01-21 10:50:00,
2013-01-21 05:55:00,64.2,63.9,30.00,NW,315,0.0,0.0,99,0.00,CLR,,0.00,WeatherDisplay:10.37,2013-01-21 10:55:00,
2013-01-21 06:00:00,64.4,64.1,30.00,NW,315,0.0,0.0,99,0.00,CLR,,0.00,WeatherDisplay:10.37,2013-01-21 11:00:00,
2013-01-21 06:05:00,64.6,64.3,30.01,NW,315,0.0,0.0,99,0.00,CLR,,0.00,WeatherDisplay:10.37,2013-01-21 11:05:00,
2013-01-21 06:10:00,64.8,64.5,30.01,NW,315,2.0,0.0,99,0.00,CLR,,0.00,WeatherDisplay:10.37,2013-01-21 11:10:00,
2013-01-21 06:15:00,64.8,64.5,30.01,NW,315,2.0,0.0,99,0.00,CLR,,0.00,WeatherDisplay:10.37,2013-01-21 11:15:00,
2013-01-21 06:20:00,64.9,64.6,30.01,NW,315,0.0,0.0,99,0.00,CLR,,0.00,WeatherDisplay:10.37,2013-01-21 11:20:00,
2013-01-21 06:25:00,64.9,64.6,30.01,NW,315,0.0,0.0,99,0.00,CLR,,0.00,WeatherDisplay:10.37,2013-01-21 11:25:00,
2013-01-21 06:30:00,64.9,64.6,30.01,NW,315,0.0,0.0,99,0.00,CLR,,0.00,WeatherDisplay:10.37,2013-01-21 11:30:00,
2013-01-21 06:35:00,64.9,64.6,30.01,NW,315,0.0,0.0,99,0.00,CLR,,0.00,WeatherDisplay:10.37,2013-01-21 11:35:00,
2013-01-21 06:40:00,64.9,64.6,30.01,NW,315,0.0,0.0,99,0.00,CLR,,0.00,WeatherDisplay:10.37,2013-01-21 11:40:00,
2013-01-21 06:45:00,65.0,64.8,30.01,NW,315,0.0,0.0,99,0.00,CLR,,0.00,WeatherDisplay:10.37,2013-01-21 11:45:00,
2013-01-21 06:50:00,65.1,64.8,30.02,NW,315,0.0,0.0,99,0.00,CLR,,0.00,WeatherDisplay:10.37,2013-01-21 11:50:00,
2013-01-21 06:55:00,65.1,64.8,30.02,NW,315,0.0,0.0,99,0.00,CLR,,0.00,WeatherDisplay:10.37,2013-01-21 11:55:00,
2013-01-21 07:00:00,65.3,65.0,30.02,WNW,290,0.0,0.0,99,0.00,CLR,,0.00,WeatherDisplay:10.37,2013-01-21 12:00:00,
2013-01-21 07:05:00,65.7,65.4,30.02,SSW,208,0.0,0.0,99,0.00,CLR,,0.00,WeatherDisplay:10.37,2013-01-21 12:05:00,
2013-01-21 07:10:00,66.0,65.7,30.02,South,185,2.0,0.0,99,0.01,RA,,0.01,WeatherDisplay:10.37,2013-01-21 12:10:00,
2013-01-21 07:15:00,66.6,66.3,30.03,South,170,0.0,0.0,99,0.01,RA,,0.01,WeatherDisplay:10.37,2013-01-21 12:15:00,
2013-01-21 07:20:00,67.6,67.3,30.03,SE,135,3.0,0.0,99,0.01,RA,,0.02,WeatherDisplay:10.37,2013-01-21 12:20:00,
2013-01-21 07:25:00,68.0,67.7,30.03,SE,126,3.0,0.0,99,0.01,RA,,0.02,WeatherDisplay:10.37,2013-01-21 12:25:00,
2013-01-21 07:30:00,68.0,67.7,30.03,SE,124,3.0,0.0,99,0.00,CLR,,0.02,WeatherDisplay:10.37,2013-01-21 12:30:00,
2013-01-21 07:35:00,68.5,68.2,30.03,SE,128,3.0,0.0,99,0.00,CLR,,0.02,WeatherDisplay:10.37,2013-01-21 12:35:00,
2013-01-21 07:40:00,69.0,68.7,30.02,ESE,122,1.0,0.0,99,0.00,CLR,,0.02,WeatherDisplay:10.37,2013-01-21 12:40:00,
2013-01-21 07:45:00,69.3,69.0,30.02,East,94,0.0,0.0,99,0.00,CLR,,0.02,WeatherDisplay:10.37,2013-01-21 12:45:00,
2013-01-21 07:50:00,69.4,69.1,30.03,NNW,336,0.0,0.0,99,0.00,CLR,,0.02,WeatherDisplay:10.37,2013-01-21 12:50:00,
2013-01-21 07:55:00,70.1,69.8,30.03,NW,315,0.0,0.0,99,0.00,CLR,,0.02,WeatherDisplay:10.37,2013-01-21 12:55:00,
2013-01-21 08:00:00,70.5,70.2,30.03,NW,315,0.0,0.0,99,0.00,CLR,,0.02,WeatherDisplay:10.37,2013-01-21 13:00:00,
2013-01-21 08:05:00,70.7,70.4,30.04,NW,315,0.0,0.0,99,0.00,CLR,,0.02,WeatherDisplay:10.37,2013-01-21 13:05:00,
2013-01-21 08:10:00,70.9,70.6,30.04,NW,315,0.0,0.0,99,0.00,CLR,,0.02,WeatherDisplay:10.37,2013-01-21 13:10:00,
2013-01-21 08:15:00,72.0,71.7,30.05,NW,315,0.0,0.0,99,0.00,CLR,,0.02,WeatherDisplay:10.37,2013-01-21 13:15:00,
2013-01-21 08:20:00,72.0,71.7,30.05,NW,315,0.0,0.0,99,0.00,CLR,,0.02,WeatherDisplay:10.37,2013-01-21 13:20:00,
2013-01-21 08:25:00,71.8,71.5,30.05,NW,315,0.0,0.0,99,0.00,CLR,,0.02,WeatherDisplay:10.37,2013-01-21 13:25:00,
2013-01-21 08:30:00,71.6,71.3,30.05,NW,315,0.0,0.0,99,0.00,CLR,,0.02,WeatherDisplay:10.37,2013-01-21 13:30:00,
2013-01-21 08:35:00,71.5,71.2,30.05,NW,315,0.0,0.0,99,0.00,CLR,,0.02,WeatherDisplay:10.37,2013-01-21 13:35:00,
2013-01-21 08:40:00,72.0,71.7,30.05,NW,315,0.0,0.0,99,0.00,CLR,,0.02,WeatherDisplay:10.37,2013-01-21 13:40:00,
2013-01-21 08:45:00,72.0,71.7,30.05,NW,315,0.0,0.0,99,0.00,CLR,,0.02,WeatherDisplay:10.37,2013-01-21 13:45:00,
2013-01-21 08:50:00,72.1,71.8,30.05,NW,315,0.0,0.0,99,0.00,CLR,,0.02,WeatherDisplay:10.37,2013-01-21 13:50:00,
2013-01-21 08:55:00,72.1,71.8,30.05,NW,315,0.0,0.0,99,0.00,CLR,,0.02,WeatherDisplay:10.37,2013-01-21 13:55:00,
2013-01-21 09:00:00,72.3,72.0,30.05,NW,315,0.0,0.0,99,0.00,CLR,,0.02,WeatherDisplay:10.37,2013-01-21 14:00:00,
2013-01-21 09:05:00,72.6,72.3,30.05,NW,315,0.0,0.0,99,0.00,CLR,,0.02,WeatherDisplay:10.37,2013-01-21 14:05:00,
2013-01-21 09:10:00,72.7,72.4,30.05,NW,315,0.0,0.0,99,0.00,CLR,,0.02,WeatherDisplay:10.37,2013-01-21 14:10:00,
2013-01-21 09:15:00,72.7,72.4,30.05,NW,315,0.0,0.0,99,0.00,CLR,,0.02,WeatherDisplay:10.37,2013-01-21 14:15:00,
2013-01-21 09:20:00,73.0,72.7,30.05,NW,315,0.0,0.0,99,0.00,CLR,,0.02,WeatherDisplay:10.37,2013-01-21 14:20:00,
2013-01-21 09:25:00,73.2,72.9,30.05,NW,315,0.0,0.0,99,0.00,CLR,,0.02,WeatherDisplay:10.37,2013-01-21 14:25:00,
2013-01-21 09:30:00,73.6,73.3,30.06,NW,315,0.0,0.0,99,0.00,CLR,,0.02,WeatherDisplay:10.37,2013-01-21 14:30:00,
2013-01-21 09:35:00,73.6,72.4,30.06,WNW,302,0.0,0.0,96,0.00,CLR,,0.02,WeatherDisplay:10.37,2013-01-21 14:35:00,
2013-01-21 09:40:00,74.2,72.4,30.06,SSE,157,3.0,0.0,94,0.00,CLR,,0.02,WeatherDisplay:10.37,2013-01-21 14:40:00,
2013-01-21 09:45:00,74.7,71.9,30.06,SE,136,3.0,0.0,91,0.00,CLR,,0.02,WeatherDisplay:10.37,2013-01-21 14:45:00,
2013-01-21 09:50:00,74.6,71.2,30.06,SE,140,7.0,0.0,89,0.00,CLR,,0.02,WeatherDisplay:10.37,2013-01-21 14:50:00,
2013-01-21 09:55:00,74.5,71.0,30.06,SSE,149,3.0,0.0,89,0.00,CLR,,0.02,WeatherDisplay:10.37,2013-01-21 14:55:00,
2013-01-21 10:00:00,74.5,71.0,30.06,SSE,158,3.0,0.0,89,0.00,CLR,,0.02,WeatherDisplay:10.37,2013-01-21 15:00:00,
2013-01-21 10:05:00,74.5,71.0,30.06,SSE,158,3.0,0.0,89,0.00,CLR,,0.02,WeatherDisplay:10.37,2013-01-21 15:05:00,
2013-01-21 10:10:00,74.5,71.0,30.06,SSE,158,3.0,0.0,89,0.00,CLR,,0.02,WeatherDisplay:10.37,2013-01-21 15:10:00,
2013-01-21 10:15:00,74.5,71.0,30.06,SSE,158,3.0,0.0,89,0.00,CLR,,0.02,WeatherDisplay:10.37,2013-01-21 15:15:00,
2013-01-21 10:20:00,74.5,71.0,30.06,SSE,158,3.0,0.0,89,0.00,CLR,,0.02,WeatherDisplay:10.37,2013-01-21 15:20:00,
2013-01-21 10:25:00,76.9,70.3,30.06,SSE,148,3.0,0.0,80,0.00,CLR,,0.02,WeatherDisplay:10.37,2013-01-21 15:25:00,
2013-01-21 10:30:00,79.2,70.2,30.06,SSE,147,3.0,0.0,74,0.00,CLR,,0.02,WeatherDisplay:10.37,2013-01-21 15:30:00,
2013-01-21 10:35:00,78.9,70.6,30.06,SSE,150,5.0,0.0,76,0.00,CLR,,0.02,WeatherDisplay:10.37,2013-01-21 15:35:00,
2013-01-21 10:40:00,78.7,69.7,30.07,SE,142,5.0,0.0,74,0.00,CLR,,0.02,WeatherDisplay:10.37,2013-01-21 15:40:00,
2013-01-21 10:45:00,78.2,70.4,30.07,SE,136,5.0,0.0,77,0.00,CLR,,0.02,WeatherDisplay:10.37,2013-01-21 15:45:00,
2013-01-21 10:50:00,77.2,69.8,30.07,SE,138,6.0,0.0,78,0.00,CLR,,0.02,WeatherDisplay:10.37,2013-01-21 15:50:00,
2013-01-21 10:55:00,78.3,70.1,30.06,SSE,149,3.0,0.0,76,0.00,CLR,,0.02,WeatherDisplay:10.37,2013-01-21 15:55:00,
2013-01-21 11:00:00,77.4,70.0,30.06,SE,145,6.0,0.0,78,0.00,CLR,,0.02,WeatherDisplay:10.37,2013-01-21 16:00:00,
2013-01-21 11:05:00,79.9,70.9,30.06,SSE,158,8.1,8.1,74,0.00,CLR,,0.02,WeatherDisplay:10.37,2013-01-21 16:05:00,
2013-01-21 11:10:00,78.1,69.9,30.06,SE,135,8.1,8.1,76,0.00,CLR,,0.02,WeatherDisplay:10.37,2013-01-21 16:10:00,
2013-01-21 11:15:00,77.7,69.9,30.05,SSE,158,10.4,10.4,77,0.00,CLR,,0.02,WeatherDisplay:10.37,2013-01-21 16:15:00,
2013-01-21 11:20:00,78.3,70.1,30.05,SE,135,5.8,5.8,76,0.00,CLR,,0.02,WeatherDisplay:10.37,2013-01-21 16:20:00,
2013-01-21 11:25:00,77.5,70.1,30.05,SSE,158,5.8,5.8,78,0.00,CLR,,0.02,WeatherDisplay:10.37,2013-01-21 16:25:00,
2013-01-21 11:30:00,76.1,69.1,30.05,SSE,158,8.8,8.8,79,0.00,CLR,,0.02,WeatherDisplay:10.37,2013-01-21 16:30:00,
2013-01-21 11:35:00,75.9,69.3,30.05,South,180,6.9,6.9,80,0.00,CLR,,0.02,WeatherDisplay:10.37,2013-01-21 16:35:00,
2013-01-21 11:40:00,75.9,69.6,30.04,SSE,158,6.9,6.9,81,0.00,CLR,,0.02,WeatherDisplay:10.37,2013-01-21 16:40:00,
2013-01-21 11:45:00,75.9,70.0,30.04,ESE,112,5.8,5.8,82,0.00,CLR,,0.02,WeatherDisplay:10.37,2013-01-21 16:45:00,
2013-01-21 11:50:00,76.4,70.1,30.04,SE,125,7.0,0.0,81,0.00,CLR,,0.02,WeatherDisplay:10.37,2013-01-21 16:50:00,
2013-01-21 11:55:00,76.9,70.3,30.04,SE,130,5.0,0.0,80,0.00,CLR,,0.02,WeatherDisplay:10.37,2013-01-21 16:55:00,
2013-01-21 12:00:00,77.0,69.6,30.04,SE,139,6.0,0.0,78,0.00,CLR,,0.02,WeatherDisplay:10.37,2013-01-21 17:00:00,
2013-01-21 12:05:00,77.0,69.3,30.04,SSE,154,3.0,0.0,77,0.00,CLR,,0.02,WeatherDisplay:10.37,2013-01-21 17:05:00,
2013-01-21 12:10:00,77.4,70.0,30.04,South,174,5.0,0.0,78,0.00,CLR,,0.02,WeatherDisplay:10.37,2013-01-21 17:10:00,
2013-01-21 12:15:00,76.5,69.5,30.03,SSE,154,7.0,0.0,79,0.00,CLR,,0.02,WeatherDisplay:10.37,2013-01-21 17:15:00,
2013-01-21 12:20:00,76.9,69.9,30.03,SSE,155,7.0,0.0,79,0.00,CLR,,0.02,WeatherDisplay:10.37,2013-01-21 17:20:00,
2013-01-21 12:25:00,78.5,70.7,30.03,SSE,161,6.0,0.0,77,0.00,CLR,,0.02,WeatherDisplay:10.37,2013-01-21 17:25:00,
2013-01-21 12:30:00,77.5,70.1,30.02,SSE,151,9.0,0.0,78,0.00,CLR,,0.02,WeatherDisplay:10.37,2013-01-21 17:30:00,
2013-01-21 12:35:00,76.5,69.9,30.02,SSE,154,9.0,0.0,80,0.00,CLR,,0.02,WeatherDisplay:10.37,2013-01-21 17:35:00,
2013-01-21 12:40:00,77.7,70.3,30.01,SSE,150,6.0,0.0,78,0.00,CLR,,0.02,WeatherDisplay:10.37,2013-01-21 17:40:00,
2013-01-21 12:45:00,77.6,69.8,30.01,SE,144,9.0,0.0,77,0.00,CLR,,0.02,WeatherDisplay:10.37,2013-01-21 17:45:00,
2013-01-21 12:50:00,79.9,70.4,30.00,SE,144,7.0,0.0,73,0.00,CLR,,0.02,WeatherDisplay:10.37,2013-01-21 17:50:00,
2013-01-21 12:55:00,78.9,69.9,30.00,SSE,150,7.0,0.0,74,0.00,CLR,,0.02,WeatherDisplay:10.37,2013-01-21 17:55:00,
2013-01-21 13:00:00,78.2,70.4,30.00,SE,146,6.0,0.0,77,0.00,CLR,,0.02,WeatherDisplay:10.37,2013-01-21 18:00:00,
2013-01-21 13:05:00,77.9,70.1,30.00,SE,140,7.0,0.0,77,0.00,CLR,,0.02,WeatherDisplay:10.37,2013-01-21 18:05:00,
2013-01-21 13:10:00,77.8,70.4,30.00,SSE,149,6.0,0.0,78,0.00,CLR,,0.02,WeatherDisplay:10.37,2013-01-21 18:10:00,
2013-01-21 13:15:00,78.0,70.6,30.00,SSE,159,5.0,0.0,78,0.00,CLR,,0.02,WeatherDisplay:10.37,2013-01-21 18:15:00,
2013-01-21 13:20:00,77.9,70.1,30.00,SSE,158,7.0,0.0,77,0.00,CLR,,0.02,WeatherDisplay:10.37,2013-01-21 18:20:00,
2013-01-21 13:25:00,79.4,70.8,30.00,SSE,159,7.0,0.0,75,0.00,CLR,,0.02,WeatherDisplay:10.37,2013-01-21 18:25:00,
2013-01-21 13:30:00,78.8,70.2,29.99,SE,135,6.9,6.9,75,0.00,CLR,,0.02,WeatherDisplay:10.37,2013-01-21 18:30:00,
2013-01-21 13:35:00,77.7,70.3,29.99,SSE,158,7.3,7.3,78,0.00,CLR,,0.02,WeatherDisplay:10.37,2013-01-21 18:35:00,
2013-01-21 13:40:00,78.3,70.9,29.98,SE,135,5.3,5.3,78,0.00,CLR,,0.02,WeatherDisplay:10.37,2013-01-21 18:40:00,
2013-01-21 13:45:00,77.4,70.4,29.98,SSE,158,9.2,9.2,79,0.00,CLR,,0.02,WeatherDisplay:10.37,2013-01-21 18:45:00,
2013-01-21 13:50:00,78.4,70.2,29.98,ESE,112,11.5,11.5,76,0.00,CLR,,0.02,WeatherDisplay:10.37,2013-01-21 18:50:00,
2013-01-21 13:55:00,78.3,70.5,29.98,ESE,112,10.4,10.4,77,0.00,CLR,,0.02,WeatherDisplay:10.37,2013-01-21 18:55:00,
2013-01-21 14:00:00,78.8,70.6,29.98,SSE,158,13.0,13.0,76,0.00,CLR,,0.02,WeatherDisplay:10.37,2013-01-21 19:00:00,
2013-01-21 14:05:00,80.1,70.7,29.97,South,180,6.9,6.9,73,0.00,CLR,,0.02,WeatherDisplay:10.37,2013-01-21 19:05:00,
2013-01-21 14:10:00,78.1,71.1,29.97,SE,135,12.7,12.7,79,0.00,CLR,,0.02,WeatherDisplay:10.37,2013-01-21 19:10:00,
2013-01-21 14:15:00,79.5,71.7,29.97,SSE,158,10.4,10.4,77,0.00,CLR,,0.02,WeatherDisplay:10.37,2013-01-21 19:15:00,
2013-01-21 14:20:00,79.0,71.2,29.97,SSE,158,6.9,6.9,77,0.00,CLR,,0.02,WeatherDisplay:10.37,2013-01-21 19:20:00,
2013-01-21 14:25:00,79.2,71.4,29.97,ESE,112,9.2,9.2,77,0.00,CLR,,0.02,WeatherDisplay:10.37,2013-01-21 19:25:00,
2013-01-21 14:30:00,78.4,71.0,29.97,South,180,8.3,8.3,78,0.00,CLR,,0.02,WeatherDisplay:10.37,2013-01-21 19:30:00,
2013-01-21 14:35:00,77.2,71.3,29.97,SE,135,11.5,11.5,82,0.00,CLR,,0.02,WeatherDisplay:10.37,2013-01-21 19:35:00,
2013-01-21 14:40:00,77.0,70.7,29.97,SSE,158,6.9,6.9,81,0.00,CLR,,0.02,WeatherDisplay:10.37,2013-01-21 19:40:00,
2013-01-21 14:45:00,77.2,70.9,29.97,SSE,158,9.4,9.4,81,0.00,CLR,,0.02,WeatherDisplay:10.37,2013-01-21 19:45:00,
2013-01-21 14:50:00,78.3,71.2,29.96,SSE,158,8.1,8.1,79,0.00,CLR,,0.02,WeatherDisplay:10.37,2013-01-21 19:50:00,
2013-01-21 14:55:00,77.9,71.2,29.96,SE,135,8.1,8.1,80,0.00,CLR,,0.02,WeatherDisplay:10.37,2013-01-21 19:55:00,
2013-01-21 15:00:00,77.9,71.6,29.96,SSE,158,5.8,5.8,81,0.00,CLR,,0.02,WeatherDisplay:10.37,2013-01-21 20:00:00,
2013-01-21 15:05:00,76.8,70.9,29.96,ESE,112,9.2,9.2,82,0.00,CLR,,0.02,WeatherDisplay:10.37,2013-01-21 20:05:00,
2013-01-21 15:10:00,76.8,70.9,29.96,ESE,112,8.3,8.3,82,0.00,CLR,,0.02,WeatherDisplay:10.37,2013-01-21 20:10:00,
2013-01-21 15:15:00,76.5,70.9,29.96,SSE,158,9.2,9.2,83,0.00,CLR,,0.02,WeatherDisplay:10.37,2013-01-21 20:15:00,
2013-01-21 15:20:00,76.8,71.2,29.96,SSE,158,6.3,6.3,83,0.00,CLR,,0.02,WeatherDisplay:10.37,2013-01-21 20:20:00,
2013-01-21 15:25:00,76.6,71.0,29.96,South,180,5.8,5.8,83,0.00,CLR,,0.02,WeatherDisplay:10.37,2013-01-21 20:25:00,
2013-01-21 15:30:00,76.3,70.4,29.95,SE,135,9.2,9.2,82,0.00,CLR,,0.02,WeatherDisplay:10.37,2013-01-21 20:30:00,
2013-01-21 15:35:00,76.5,70.9,29.95,South,180,5.8,5.8,83,0.00,CLR,,0.02,WeatherDisplay:10.37,2013-01-21 20:35:00,
2013-01-21 15:40:00,76.5,70.6,29.95,SE,135,9.2,9.2,82,0.00,CLR,,0.02,WeatherDisplay:10.37,2013-01-21 20:40:00,
2013-01-21 15:45:00,76.5,70.6,29.95,SSE,158,6.3,6.3,82,0.00,CLR,,0.02,WeatherDisplay:10.37,2013-01-21 20:45:00,
2013-01-21 15:50:00,76.5,70.6,29.95,SSE,158,5.8,5.8,82,0.00,CLR,,0.02,WeatherDisplay:10.37,2013-01-21 20:50:00,
2013-01-21 15:55:00,76.8,70.5,29.95,SW,225,8.1,8.1,81,0.00,CLR,,0.02,WeatherDisplay:10.37,2013-01-21 20:55:00,
2013-01-21 16:00:00,76.8,70.5,29.95,SW,225,5.8,5.8,81,0.00,CLR,,0.02,WeatherDisplay:10.37,2013-01-21 21:00:00,
2013-01-21 16:05:00,76.6,70.3,29.96,SSE,158,6.9,6.9,81,0.00,CLR,,0.02,WeatherDisplay:10.37,2013-01-21 21:05:00,
2013-01-21 16:10:00,77.0,70.7,29.96,ESE,112,4.6,4.6,81,0.00,CLR,,0.02,WeatherDisplay:10.37,2013-01-21 21:10:00,
2013-01-21 16:15:00,76.6,70.3,29.96,SE,135,5.8,5.8,81,0.00,CLR,,0.02,WeatherDisplay:10.37,2013-01-21 21:15:00,
2013-01-21 16:20:00,76.6,70.0,29.96,ESE,112,6.9,6.9,80,0.00,CLR,,0.02,WeatherDisplay:10.37,2013-01-21 21:20:00,
2013-01-21 16:25:00,76.1,70.2,29.96,SSE,158,9.2,9.2,82,0.00,CLR,,0.02,WeatherDisplay:10.37,2013-01-21 21:25:00,
2013-01-21 16:30:00,76.5,70.6,29.96,SSW,202,8.1,8.1,82,0.00,CLR,,0.02,WeatherDisplay:10.37,2013-01-21 21:30:00,
2013-01-21 16:35:00,76.6,70.3,29.96,SSE,158,5.8,5.8,81,0.00,CLR,,0.02,WeatherDisplay:10.37,2013-01-21 21:35:00,
2013-01-21 16:40:00,76.3,70.4,29.96,SSE,158,5.8,5.8,82,0.00,CLR,,0.02,WeatherDisplay:10.37,2013-01-21 21:40:00,
2013-01-21 16:45:00,76.1,70.2,29.96,SSE,158,3.7,3.7,82,0.00,CLR,,0.02,WeatherDisplay:10.37,2013-01-21 21:45:00,
2013-01-21 16:50:00,76.1,70.2,29.96,SSE,158,4.6,4.6,82,0.00,CLR,,0.02,WeatherDisplay:10.37,2013-01-21 21:50:00,
2013-01-21 16:55:00,76.5,70.2,29.96,SSW,202,4.7,4.7,81,0.00,CLR,,0.02,WeatherDisplay:10.37,2013-01-21 21:55:00,
2013-01-21 17:00:00,76.5,70.2,29.96,SW,225,5.8,5.8,81,0.00,CLR,,0.02,WeatherDisplay:10.37,2013-01-21 22:00:00,
2013-01-21 17:05:00,76.5,69.9,29.96,West,270,4.6,4.6,80,0.00,CLR,,0.02,WeatherDisplay:10.37,2013-01-21 22:05:00,
2013-01-21 17:10:00,76.5,69.9,29.96,SSW,202,5.8,5.8,80,0.00,CLR,,0.02,WeatherDisplay:10.37,2013-01-21 22:10:00,
2013-01-21 17:15:00,76.5,69.9,29.96,South,180,4.2,4.2,80,0.00,CLR,,0.02,WeatherDisplay:10.37,2013-01-21 22:15:00,
2013-01-21 17:20:00,75.7,69.5,29.96,South,180,4.6,4.6,81,0.00,CLR,,0.02,WeatherDisplay:10.37,2013-01-21 22:20:00,
2013-01-21 17:25:00,75.7,69.5,29.96,SSE,158,3.5,3.5,81,0.00,CLR,,0.02,WeatherDisplay:10.37,2013-01-21 22:25:00,
2013-01-21 17:30:00,75.6,69.7,29.97,ESE,112,2.3,2.3,82,0.00,CLR,,0.02,WeatherDisplay:10.37,2013-01-21 22:30:00,
2013-01-21 17:35:00,75.6,70.1,29.97,ESE,112,2.3,2.3,83,0.00,CLR,,0.02,WeatherDisplay:10.37,2013-01-21 22:35:00,
2013-01-21 17:40:00,75.0,69.5,29.97,South,180,0.0,0.0,83,0.00,CLR,,0.02,WeatherDisplay:10.37,2013-01-21 22:40:00,
2013-01-21 17:45:00,74.8,69.6,29.97,SSE,158,0.0,0.0,84,0.00,CLR,,0.02,WeatherDisplay:10.37,2013-01-21 22:45:00,
2013-01-21 17:50:00,74.7,69.5,29.97,SSE,158,0.0,0.0,84,0.00,CLR,,0.02,WeatherDisplay:10.37,2013-01-21 22:50:00,
2013-01-21 17:55:00,74.5,69.3,29.97,SE,135,0.0,0.0,84,0.00,CLR,,0.02,WeatherDisplay:10.37,2013-01-21 22:55:00,
2013-01-21 18:00:00,74.3,69.5,29.97,SSE,158,0.0,0.0,85,0.00,CLR,,0.02,WeatherDisplay:10.37,2013-01-21 23:00:00,
2013-01-21 18:05:00,74.3,69.5,29.97,SE,135,0.0,0.0,85,0.00,CLR,,0.02,WeatherDisplay:10.37,2013-01-21 23:05:00,
2013-01-21 18:10:00,74.3,69.5,29.97,South,180,0.0,0.0,85,0.00,CLR,,0.02,WeatherDisplay:10.37,2013-01-21 23:10:00,
2013-01-21 18:15:00,74.3,69.5,29.98,SSW,202,0.0,0.0,85,0.00,CLR,,0.02,WeatherDisplay:10.37,2013-01-21 23:15:00,
2013-01-21 18:20:00,74.3,70.2,29.98,SSW,202,0.0,0.0,87,0.00,CLR,,0.02,WeatherDisplay:10.37,2013-01-21 23:20:00,
2013-01-21 18:25:00,74.1,70.3,29.97,SSW,202,2.7,2.7,88,0.00,CLR,,0.02,WeatherDisplay:10.37,2013-01-21 23:25:00,
2013-01-21 18:30:00,73.0,70.5,29.97,South,180,3.5,3.5,92,0.01,RA,,0.03,WeatherDisplay:10.37,2013-01-21 23:30:00,
2013-01-21 18:35:00,72.5,71.0,29.97,South,180,5.3,5.3,95,0.03,RA,,0.06,WeatherDisplay:10.37,2013-01-21 23:35:00,
2013-01-21 18:40:00,72.0,70.5,29.98,South,180,2.3,2.3,95,0.04,RA,,0.06,WeatherDisplay:10.37,2013-01-21 23:40:00,
2013-01-21 18:45:00,72.0,70.5,29.98,West,270,6.3,6.3,95,0.04,RA,,0.06,WeatherDisplay:10.37,2013-01-21 23:45:00,
2013-01-21 18:50:00,72.0,70.8,29.98,WNW,292,6.9,6.9,96,0.04,CLR,,0.06,WeatherDisplay:10.37,2013-01-21 23:50:00,
2013-01-21 18:55:00,71.6,69.5,29.98,WNW,292,9.2,9.2,93,0.04,CLR,,0.06,WeatherDisplay:10.37,2013-01-21 23:55:00,
2013-01-21 19:00:00,71.4,69.0,29.98,NW,315,9.2,9.2,92,0.04,CLR,,0.06,WeatherDisplay:10.37,2013-01-22 00:00:00,
2013-01-21 19:05:00,71.2,68.8,29.99,NW,315,11.9,11.9,92,0.04,CLR,,0.06,WeatherDisplay:10.37,2013-01-22 00:05:00,
2013-01-21 19:10:00,71.1,68.7,29.99,WNW,292,9.2,9.2,92,0.04,CLR,,0.06,WeatherDisplay:10.37,2013-01-22 00:10:00,
2013-01-21 19:15:00,71.1,68.7,30.00,WNW,292,6.8,6.8,92,0.04,CLR,,0.06,WeatherDisplay:10.37,2013-01-22 00:15:00,
2013-01-21 19:20:00,70.9,68.5,30.00,WNW,292,6.9,6.9,92,0.04,CLR,,0.06,WeatherDisplay:10.37,2013-01-22 00:20:00,
2013-01-21 19:25:00,70.7,68.3,30.00,NW,315,8.1,8.1,92,0.04,CLR,,0.06,WeatherDisplay:10.37,2013-01-22 00:25:00,
2013-01-21 19:30:00,70.7,68.3,30.00,NW,315,5.8,5.8,92,0.03,CLR,,0.06,WeatherDisplay:10.37,2013-01-22 00:30:00,
2013-01-21 19:35:00,70.7,67.9,30.00,WNW,292,9.2,9.2,91,0.01,CLR,,0.06,WeatherDisplay:10.37,2013-01-22 00:35:00,
2013-01-21 19:40:00,70.7,67.9,30.00,WNW,292,5.8,5.8,91,0.00,CLR,,0.06,WeatherDisplay:10.37,2013-01-22 00:40:00,
2013-01-21 19:45:00,70.7,67.6,30.00,NW,315,8.1,8.1,90,0.00,CLR,,0.06,WeatherDisplay:10.37,2013-01-22 00:45:00,
2013-01-21 19:50:00,70.5,66.8,30.00,WSW,248,8.1,8.1,88,0.00,CLR,,0.06,WeatherDisplay:10.37,2013-01-22 00:50:00,
2013-01-21 19:55:00,70.5,66.4,30.00,West,270,5.8,5.8,87,0.00,CLR,,0.06,WeatherDisplay:10.37,2013-01-22 00:55:00,
2013-01-21 20:00:00,70.2,66.1,30.00,WNW,292,8.3,8.3,87,0.00,CLR,,0.06,WeatherDisplay:10.37,2013-01-22 01:00:00,
2013-01-21 20:05:00,70.2,65.8,30.00,West,270,10.4,10.4,86,0.00,CLR,,0.06,WeatherDisplay:10.37,2013-01-22 01:05:00,
2013-01-21 20:10:00,70.2,65.8,30.00,West,270,5.8,5.8,86,0.00,CLR,,0.06,WeatherDisplay:10.37,2013-01-22 01:10:00,
2013-01-21 20:15:00,69.8,65.4,30.00,West,270,5.8,5.8,86,0.00,CLR,,0.06,WeatherDisplay:10.37,2013-01-22 01:15:00,
2013-01-21 20:20:00,69.8,65.4,30.00,West,270,8.1,8.1,86,0.00,CLR,,0.06,WeatherDisplay:10.37,2013-01-22 01:20:00,
2013-01-21 20:25:00,69.6,65.2,30.00,WNW,292,8.1,8.1,86,0.00,CLR,,0.06,WeatherDisplay:10.37,2013-01-22 01:25:00,
2013-01-21 20:30:00,69.4,65.4,30.01,NW,315,4.6,4.6,87,0.00,CLR,,0.06,WeatherDisplay:10.37,2013-01-22 01:30:00,
2013-01-21 20:35:00,69.3,65.3,30.01,WNW,292,5.8,5.8,87,0.00,CLR,,0.06,WeatherDisplay:10.37,2013-01-22 01:35:00,
2013-01-21 20:40:00,69.3,65.3,30.01,West,270,3.5,3.5,87,0.00,CLR,,0.06,WeatherDisplay:10.37,2013-01-22 01:40:00,
2013-01-21 20:45:00,69.1,65.4,30.01,West,270,3.7,3.7,88,0.00,CLR,,0.06,WeatherDisplay:10.37,2013-01-22 01:45:00,
2013-01-21 20:50:00,68.9,65.2,30.01,West,270,3.5,3.5,88,0.00,CLR,,0.06,WeatherDisplay:10.37,2013-01-22 01:50:00,
2013-01-21 20:55:00,68.7,65.3,30.01,WNW,292,4.6,4.6,89,0.00,CLR,,0.06,WeatherDisplay:10.37,2013-01-22 01:55:00,
2013-01-21 21:00:00,68.7,65.3,30.01,West,270,3.2,3.2,89,0.00,CLR,,0.06,WeatherDisplay:10.37,2013-01-22 02:00:00,
2013-01-21 21:05:00,68.7,65.3,30.01,WNW,292,3.5,3.5,89,0.00,CLR,,0.06,WeatherDisplay:10.37,2013-01-22 02:05:00,
2013-01-21 21:10:00,68.7,65.3,30.01,WSW,248,3.5,3.5,89,0.00,CLR,,0.06,WeatherDisplay:10.37,2013-01-22 02:10:00,
2013-01-21 21:15:00,68.7,65.3,30.02,West,270,3.5,3.5,89,0.00,CLR,,0.06,WeatherDisplay:10.37,2013-01-22 02:15:00,
2013-01-21 21:20:00,68.7,65.3,30.02,WNW,292,6.3,6.3,89,0.00,CLR,,0.06,WeatherDisplay:10.37,2013-01-22 02:20:00,
2013-01-21 21:25:00,68.7,66.0,30.02,WNW,292,6.3,6.3,91,0.00,CLR,,0.06,WeatherDisplay:10.37,2013-01-22 02:25:00,
2013-01-21 21:30:00,68.5,65.8,30.02,WNW,292,6.9,6.9,91,0.00,CLR,,0.06,WeatherDisplay:10.37,2013-01-22 02:30:00,
2013-01-21 21:35:00,68.4,66.0,30.02,West,270,4.7,4.7,92,0.00,CLR,,0.06,WeatherDisplay:10.37,2013-01-22 02:35:00,
2013-01-21 21:40:00,68.2,66.1,30.02,West,270,7.8,7.8,93,0.00,CLR,,0.06,WeatherDisplay:10.37,2013-01-22 02:40:00,
2013-01-21 21:45:00,68.0,66.2,30.02,West,270,5.8,5.8,94,0.00,CLR,,0.06,WeatherDisplay:10.37,2013-01-22 02:45:00,
2013-01-21 21:50:00,67.8,66.3,30.02,West,270,6.9,6.9,95,0.00,CLR,,0.06,WeatherDisplay:10.37,2013-01-22 02:50:00,
2013-01-21 21:55:00,67.6,66.1,30.02,West,270,6.8,6.8,95,0.00,CLR,,0.06,WeatherDisplay:10.37,2013-01-22 02:55:00,
2013-01-21 22:00:00,67.5,66.0,30.02,WNW,292,4.7,4.7,95,0.00,CLR,,0.06,WeatherDisplay:10.37,2013-01-22 03:00:00,
2013-01-21 22:05:00,67.5,66.3,30.02,WNW,292,7.3,7.3,96,0.00,CLR,,0.06,WeatherDisplay:10.37,2013-01-22 03:05:00,
2013-01-21 22:10:00,67.3,66.1,30.02,WNW,292,5.3,5.3,96,0.00,CLR,,0.06,WeatherDisplay:10.37,2013-01-22 03:10:00,
2013-01-21 22:15:00,67.3,66.1,30.02,West,270,5.8,5.8,96,0.00,CLR,,0.06,WeatherDisplay:10.37,2013-01-22 03:15:00,
2013-01-21 22:20:00,67.1,65.9,30.02,NW,315,5.8,5.8,96,0.00,CLR,,0.06,WeatherDisplay:10.37,2013-01-22 03:20:00,
2013-01-21 22:25:00,67.1,65.9,30.02,WNW,292,5.8,5.8,96,0.00,CLR,,0.06,WeatherDisplay:10.37,2013-01-22 03:25:00,
2013-01-21 22:30:00,66.9,66.0,30.02,NNW,338,3.2,3.2,97,0.00,CLR,,0.06,WeatherDisplay:10.37,2013-01-22 03:30:00,
2013-01-21 22:35:00,66.7,65.8,30.02,NW,315,3.5,3.5,97,0.00,CLR,,0.06,WeatherDisplay:10.37,2013-01-22 03:35:00,
2013-01-21 22:40:00,66.7,65.8,30.03,NW,315,5.8,5.8,97,0.00,CLR,,0.06,WeatherDisplay:10.37,2013-01-22 03:40:00,
2013-01-21 22:45:00,66.6,65.7,30.03,WNW,292,5.8,5.8,97,0.00,CLR,,0.06,WeatherDisplay:10.37,2013-01-22 03:45:00,
2013-01-21 22:50:00,66.6,66.0,30.03,NW,315,3.7,3.7,98,0.00,CLR,,0.06,WeatherDisplay:10.37,2013-01-22 03:50:00,
2013-01-21 22:55:00,66.6,66.0,30.03,West,270,4.7,4.7,98,0.00,CLR,,0.06,WeatherDisplay:10.37,2013-01-22 03:55:00,
2013-01-21 23:00:00,66.4,65.8,30.03,WNW,292,4.6,4.6,98,0.00,CLR,,0.06,WeatherDisplay:10.37,2013-01-22 04:00:00,
2013-01-21 23:05:00,66.4,65.8,30.03,WNW,292,5.8,5.8,98,0.00,CLR,,0.06,WeatherDisplay:10.37,2013-01-22 04:05:00,
2013-01-21 23:10:00,66.2,65.6,30.03,WNW,292,5.8,5.8,98,0.00,CLR,,0.06,WeatherDisplay:10.37,2013-01-22 04:10:00,
2013-01-21 23:16:00,66.2,65.6,30.02,WNW,292,7.8,7.8,98,0.00,CLR,,0.06,WeatherDisplay:10.37,2013-01-22 04:16:00,
2013-01-21 23:21:00,66.2,65.6,30.02,WNW,292,5.8,5.8,98,0.00,CLR,,0.06,WeatherDisplay:10.37,2013-01-22 04:21:00,
2013-01-21 23:26:00,66.0,65.4,30.02,WNW,292,5.3,5.3,98,0.00,CLR,,0.06,WeatherDisplay:10.37,2013-01-22 04:26:00,
2013-01-21 23:31:00,65.8,65.2,30.02,WNW,292,5.8,5.8,98,0.00,CLR,,0.06,WeatherDisplay:10.37,2013-01-22 04:31:00,
2013-01-21 23:36:00,65.8,65.2,30.02,West,270,5.8,5.8,98,0.00,CLR,,0.06,WeatherDisplay:10.37,2013-01-22 04:36:00,
2013-01-21 23:41:00,65.7,65.1,30.02,WNW,292,4.6,4.6,98,0.00,CLR,,0.06,WeatherDisplay:10.37,2013-01-22 04:41:00,
2013-01-21 23:46:00,65.7,65.4,30.02,West,270,4.6,4.6,99,0.00,CLR,,0.06,WeatherDisplay:10.37,2013-01-22 04:46:00,
2013-01-21 23:51:00,65.5,65.2,30.03,NNW,338,5.8,5.8,99,0.00,CLR,,0.06,WeatherDisplay:10.37,2013-01-22 04:51:00,
2013-01-21 23:56:00,65.5,65.2,30.03,NNW,338,4.6,4.6,99,0.00,CLR,,0.06,WeatherDisplay:10.37,2013-01-22 04:56:00,